Weather History for KPAE - May, 2013

Change the Weather History Date:

Thursday, May 23, 2013

  Actual Average Record
Temperature  
Mean Temperature 50 °F -  
Max Temperature 57 °F 65 °F 82 °F (1969)
Min Temperature 44 °F 47 °F 38 °F (1964)
Degree Days  
Heating Degree Days 16    
Moisture  
Dew Point 43 °F    
Average Humidity 80    
Maximum Humidity 100    
Minimum Humidity 62    
Precipitation  
Precipitation 0.02 in - - ()
Sea Level Pressure  
Sea Level Pressure 29.99 in    
Wind  
Wind Speed 5 mph (SSW)    
Max Wind Speed 23 mph    
Max Gust Speed 26 mph    
Visibility 10 miles    
Events Rain    
Averages and records for this station are not official NWS values.
T = Trace of Precipitation, MM = Missing Value Source: NWS Daily Summary

Daily Weather History Graph

Daily Weather History Graph

Search for Another Location

Airport or City:

Trip Planner

Search our weather history database for the weather conditions in past years. The results will help you decide how hot, cold, wet, or windy it might be!

Date:

Astronomy

May. 23, 2013 Rise Set
Actual Time 5:21 AM PDT 8:51 PM PDT
Civil Twilight 4:42 AM PDT 9:29 PM PDT
Nautical Twilight 3:51 AM PDT 10:21 PM PDT
Astronomical Twilight 2:44 AM PDT 11:30 PM PDT
Moon 7:25 PM PDT (5/23) 4:18 AM PDT (5/23)
Length of Visible Light 16h 46m
Length of Day
15h 29m
Waxing Gibbous, 97% of the Moon is Illuminated
May 23
Waxing Gibbous
May 24
Full
May 31
Last Quarter
Jun 8
New
Jun 16
First Quarter

Hourly Weather History & Observations

Time (PDT) Temp. Windchill Dew Point Humidity Pressure Visibility Wind Dir Wind Speed Gust Speed Precip Events Conditions
12:31 AM 44.6 °F - 44.6 °F 100% 29.93 in 5.0 mi Calm Calm - N/A   Mostly Cloudy
12:53 AM 46.9 °F - 45.0 °F 93% 29.94 in 9.0 mi SSE 3.5 mph - N/A   Overcast
1:08 AM 46.4 °F - 44.6 °F 93% 29.94 in 9.0 mi Calm Calm - N/A   Overcast
1:53 AM 46.9 °F - 45.0 °F 93% 29.95 in 10.0 mi Calm Calm - N/A   Overcast
2:17 AM 46.4 °F 45.2 °F 44.6 °F 93% 29.95 in 10.0 mi South 3.5 mph - N/A   Overcast
2:53 AM 46.9 °F - 44.1 °F 90% 29.96 in 10.0 mi Calm Calm - N/A   Overcast
3:32 AM 46.4 °F 43.5 °F 44.6 °F 93% 29.95 in 10.0 mi SSE 5.8 mph - N/A   Overcast
3:53 AM 46.0 °F 43.1 °F 43.0 °F 89% 29.96 in 10.0 mi SSE 5.8 mph - N/A   Overcast
4:18 AM 46.4 °F 45.2 °F 42.8 °F 87% 29.95 in 10.0 mi South 3.5 mph - 0.00 in   Overcast
4:53 AM 46.0 °F 43.9 °F 43.0 °F 89% 29.96 in 10.0 mi South 4.6 mph - 0.00 in   Overcast
5:51 AM 44.6 °F 41.4 °F 42.8 °F 93% 29.96 in 10.0 mi SSW 5.8 mph - N/A   Overcast
5:53 AM 45.0 °F 42.6 °F 42.1 °F 90% 29.97 in 10.0 mi SSW 4.6 mph - N/A   Overcast
6:53 AM 45.0 °F 42.6 °F 42.1 °F 90% 29.99 in 10.0 mi SSW 4.6 mph - N/A   Overcast
7:00 AM 44.6 °F 41.4 °F 42.8 °F 93% 29.98 in 10.0 mi SSW 5.8 mph - N/A   Overcast
7:53 AM 46.0 °F 43.9 °F 43.0 °F 89% 30.00 in 10.0 mi South 4.6 mph - N/A   Overcast
8:53 AM 46.9 °F - 42.1 °F 83% 30.01 in 10.0 mi South 4.6 mph - 0.02 in   Overcast
9:18 AM 48.2 °F - 42.8 °F 82% 30.00 in 10.0 mi SSE 6.9 mph - N/A   Overcast
9:53 AM 48.9 °F - 42.1 °F 77% 30.00 in 10.0 mi South 8.1 mph - N/A   Mostly Cloudy
10:11 AM 48.2 °F - 41.0 °F 76% 29.99 in 10.0 mi South 6.9 mph - N/A   Mostly Cloudy
10:53 AM 48.9 °F - 44.1 °F 83% 30.00 in 10.0 mi West 4.6 mph - N/A   Overcast
11:36 AM 50.0 °F - 44.6 °F 82% 29.99 in 10.0 mi WSW 6.9 mph - N/A   Overcast
11:46 AM 51.8 °F - 44.6 °F 76% 29.98 in 10.0 mi West 4.6 mph - N/A   Overcast
11:53 AM 54.0 °F - 45.0 °F 72% 29.99 in 10.0 mi WSW 5.8 mph - N/A   Mostly Cloudy
12:53 PM 55.0 °F - 42.1 °F 62% 29.98 in 10.0 mi WSW 10.4 mph - N/A   Overcast
1:53 PM 53.1 °F - 41.0 °F 64% 29.99 in 10.0 mi SW 11.5 mph 20.7 mph 0.00 in Rain Light Rain
2:53 PM 55.0 °F - 42.1 °F 62% 30.01 in 10.0 mi South 23.0 mph - 0.00 in   Overcast
3:13 PM 51.8 °F - 41.0 °F 67% 30.01 in 10.0 mi SSW 16.1 mph - 0.00 in Rain Light Rain
3:53 PM 51.1 °F - 39.9 °F 66% 30.02 in 10.0 mi South 19.6 mph 25.3 mph 0.00 in   Overcast
4:00 PM 51.8 °F - 41.0 °F 67% 30.01 in 10.0 mi South 19.6 mph 26.5 mph N/A   Mostly Cloudy
4:53 PM 51.1 °F - 39.9 °F 66% 30.02 in 10.0 mi South 13.8 mph 21.9 mph N/A   Mostly Cloudy
5:00 PM 51.8 °F - 39.2 °F 62% 30.01 in 10.0 mi South 15.0 mph - N/A   Mostly Cloudy
5:53 PM 52.0 °F - 39.9 °F 63% 30.01 in 10.0 mi South 8.1 mph - N/A   Partly Cloudy
6:53 PM 51.1 °F - 39.9 °F 66% 30.01 in 10.0 mi SSE 6.9 mph - N/A   Partly Cloudy
7:53 PM 51.1 °F - 41.0 °F 68% 30.00 in 10.0 mi East 3.5 mph - N/A   Clear
8:53 PM 48.0 °F - 43.0 °F 83% 30.00 in 10.0 mi Calm Calm - N/A   Clear
9:53 PM 46.9 °F - 42.1 °F 83% 30.01 in 10.0 mi Calm Calm - N/A   Mostly Cloudy
10:53 PM 48.0 °F - 43.0 °F 83% 30.00 in 10.0 mi Calm Calm - 0.00 in Rain Light Rain
11:53 PM 46.9 °F - 43.0 °F 86% 30.00 in 10.0 mi SW 4.6 mph - 0.00 in   Partly Cloudy